Content
SEND FEEDBACK

Daily
Averages
Monthly
Summary
United States of America

ANN ARBOR, MICHIGAN


Home > North America > United States > Michigan
Elevation: 759 feet     Latitude: 42 17N     Longitude: 083 43W

WEATHER
 
SELECT A DAY
Number of Records: 203,415;   Date Range: 1/1/95 - 7/29/14
 
SHARE

PRINT THIS DATA

[ ← Previous Day ]
WEATHER ALMANAC - JANUARY 6, 2013
[ Next Day → ]
[ °C ]   °F
Weather ElementAverageHighLow
Temperature33.5 °F35.6 °F (12:12 pm)32 °F (4:53 pm)
Dewpoint28.2 °F30.9 °F (12:53 pm)24.1 °F (9:53 pm)
Humidity81.2 %87 % (1:48 pm)70 % (9:53 pm)
Barometer30.01 in30.28 in (11:53 pm)29.91 in (6:33 am)
Wind Speed10 mph16.1 mph (1:27 pm)
Wind Gust25.3 mph (1:27 pm)
Weather ElementAverage
Visibility6 mi
Wind DirectionWSW (257.2 °)

Weather ElementTotal
Precipitation---
Heating Degree Days31.2 (Base 65)
Averaged from 36 records on January 6, 2013
WEATHER CONDITIONS BREAKOUT
WIND DIRECTION BREAKOUT
WEATHER BY HOUR - JANUARY 6, 2013
[ °C ]   °F
Local TimeTemperatureDewpointHumidityBarometerVisibilityWind DirectionWind SpeedGust SpeedPrecipitationEventsConditions
12:53 AM33.1 °F28.9 °F85 %30.03 in7.0 miSW (220°)12.7 mph0.00 inOvercast
1:18 AM33.8 °F28.4 °F81 %29.98 in7.0 miSW (220°)11.5 mphOvercast
1:53 AM33.1 °F28.0 °F82 %30.00 in7.0 miSW (220°)10.4 mphOvercast
2:17 AM33.8 °F28.4 °F81 %29.97 in7.0 miSW (220°)13.8 mphOvercast
2:53 AM33.1 °F28.0 °F82 %29.99 in7.0 miSW (220°)10.4 mphOvercast
3:02 AM33.8 °F28.4 °F81 %29.96 in8.0 miSW (220°)9.2 mphOvercast
3:32 AM33.8 °F28.4 °F81 %29.95 in7.0 miSW (230°)12.7 mphOvercast
3:53 AM33.1 °F28.0 °F82 %29.97 in7.0 miSW (230°)11.5 mphOvercast
4:35 AM33.8 °F28.4 °F81 %29.93 in5.0 miSW (230°)9.2 mph0.00 inSnowLight Snow
4:53 AM33.1 °F28.9 °F85 %29.95 in5.0 miSW (220°)9.2 mph0.00 inSnowLight Snow
5:53 AM33.1 °F28.9 °F85 %29.94 in5.0 miSW (220°)9.2 mph0.00 inSnowLight Snow
6:33 AM33.8 °F28.4 °F81 %29.91 in7.0 miSW (220°)8.1 mph0.00 inOvercast
7:53 AM34.0 °F28.9 °F82 %29.93 in8.0 miSW (220°)6.9 mphOvercast
8:53 AM34.0 °F28.9 °F82 %29.94 in6.0 miSSW (210°)8.1 mphHaze
9:53 AM34.0 °F28.9 °F82 %29.94 in6.0 miSSW (210°)8.1 mphHaze
11:53 AM35.1 °F28.9 °F78 %29.94 in6.0 miSW (230°)12.7 mphHaze
12:12 PM35.6 °F30.2 °F81 %29.91 in4.0 miSW (230°)8.1 mphHaze
12:53 PM35.1 °F30.9 °F85 %29.94 in4.0 miWSW (240°)9.2 mphOvercast
1:27 PM35.6 °F28.4 °F75 %29.91 in8.0 miWest (260°)16.1 mph25.3 mphOvercast
1:48 PM33.8 °F30.2 °F87 %29.92 in3.0 miWest (280°)12.7 mph25.3 mphOvercast
1:53 PM34.0 °F30.0 °F85 %29.95 in3.0 miWest (270°)13.8 mphOvercast
2:04 PM33.8 °F30.2 °F87 %29.92 in4.0 miWest (280°)11.5 mphOvercast
2:15 PM33.8 °F30.2 °F87 %29.93 in3.0 miWest (270°)11.5 mph21.9 mphOvercast
2:25 PM33.8 °F30.2 °F87 %29.93 in4.0 miWest (260°)11.5 mphOvercast
2:53 PM33.1 °F28.9 °F85 %29.97 in3.0 miWest (270°)13.8 mphOvercast
3:53 PM33.1 °F28.9 °F85 %30.02 in3.0 miNW (310°)11.5 mph0.00 inOvercast
4:53 PM32.0 °F27.0 °F82 %30.06 in5.0 miWNW (290°)10.4 mphHaze
5:00 PM32.0 °F26.6 °F80 %30.03 in5.0 miWNW (290°)10.4 mphHaze
5:29 PM32.0 °F28.4 °F87 %30.05 in5.0 miWNW (290°)6.9 mphOvercast
5:53 PM33.1 °F27.0 °F78 %30.09 in6.0 miWNW (300°)9.2 mphHaze
6:53 PM33.1 °F27.0 °F78 %30.14 in6.0 miWNW (290°)6.9 mphHaze
7:53 PM33.1 °F27.0 °F78 %30.17 in7.0 miNW (320°)6.9 mphOvercast
8:53 PM33.1 °F25.0 °F72 %30.19 in9.0 miNW (320°)6.9 mphOvercast
9:53 PM33.1 °F24.1 °F70 %30.22 in10.0 miNW (320°)6.9 mphOvercast
10:53 PM33.1 °F24.1 °F70 %30.25 in10.0 miNW (320°)5.8 mphOvercast
11:53 PM32.0 °F24.1 °F73 %30.28 in10.0 miNW (310°)5.8 mphOvercast
Hourly data recorded from KARB, located miles away from Ann Arbor, Michigan







STORIES FROM OUR PARTNERS